[TLELIST] Archives

 

[list_settings.list_name] Current TLEs

August 15th 2021 PST

HST 1 20580U 90037B 21226.89463543 .00000502 00000-0 19370-4 0 9990 2 20580 28.4708 38.3739 0002631 336.3193 141.9170 15.09704008519854 ISS (ZARYA) 1 25544U 98067A 21227.32718450 .00001179 00000-0 29623-4 0 9998 2 25544 51.6442 50.2621 0001283 311.2543 108.3261 15.48903018297764 CXO 1 25867U 99040B 21228.93848529 .00000475 00000-0 00000-0 0 9999 2 25867 53.5907 252.6538 8409975 226.9158 0.7837 0.37803521 10662 ____________________________________________________________________ These 2-Line ...Continue Reading

[list_settings.list_name] Current TLEs

August 14th 2021 PST

HST 1 20580U 90037B 21225.81896759 .00000505 00000-0 19533-4 0 9994 2 20580 28.4708 45.4917 0002594 324.2428 56.2208 15.09703353519690 ISS (ZARYA) 1 25544U 98067A 21226.24959865 .00001356 00000-0 32848-4 0 9995 2 25544 51.6437 55.5919 0001260 306.9916 219.9589 15.48900181297597 CXO 1 25867U 99040B 21226.29340249 .00000540 00000-0 00000+0 0 9994 2 25867 53.6596 252.7695 8408562 226.9148 0.6416 0.37810999 21797 ____________________________________________________________________ These 2-Line ...Continue Reading

[list_settings.list_name] Current TLEs

August 13th 2021 PST

HST 1 20580U 90037B 21224.84031611 .00000495 00000-0 18934-4 0 9996 2 20580 28.4707 51.9675 0002570 313.1067 137.9089 15.09702652519787 ISS (ZARYA) 1 25544U 98067A 21225.08452447 .00001000 00000-0 26368-4 0 9996 2 25544 51.6432 61.3538 0001216 306.1503 200.0188 15.48894829297417 CXO 1 25867U 99040B 21226.29340249 .00000540 00000-0 00000+0 0 9994 2 25867 53.6596 252.7695 8408562 226.9148 0.6416 0.37810999 21797 ____________________________________________________________________ These 2-Line ...Continue Reading

[list_settings.list_name] Current TLEs

August 12th 2021 PST

HST 1 20580U 90037B 21223.83560581 .00000495 00000-0 18963-4 0 9999 2 20580 28.4706 58.6157 0002549 301.5598 78.1017 15.09701971519398 ISS (ZARYA) 1 25544U 98067A 21224.49220837 .00000457 00000-0 16469-4 0 9992 2 25544 51.6432 64.2834 0001186 294.1483 147.0698 15.48890637297326 CXO 1 25867U 99040B 21226.29340249 .00000540 00000-0 00000+0 0 9994 2 25867 53.6596 252.7695 8408562 226.9148 0.6416 0.37810999 21797 ____________________________________________________________________ These 2-Line ...Continue Reading

[list_settings.list_name] Current TLEs

August 11th 2021 PST

HST 1 20580U 90037B 21222.92552307 .00000489 00000-0 18560-4 0 9991 2 20580 28.4706 64.6379 0002534 291.1372 172.4854 15.09701289519253 ISS (ZARYA) 1 25544U 98067A 21223.45843611 .00000726 00000-0 21375-4 0 9999 2 25544 51.6439 69.3961 0001266 290.9886 142.1102 15.48889835297166 CXO 1 25867U 99040B 21223.64782241 .00000632 00000-0 00000-0 0 9995 2 25867 53.7582 252.9335 8407955 226.8645 0.5211 0.37813727 10659 ____________________________________________________________________ These 2-Line ...Continue Reading

[list_settings.list_name] Current TLEs

August 10th 2021 PST

HST 1 20580U 90037B 21222.00891497 .00000543 00000-0 21834-4 0 9995 2 20580 28.4705 70.7032 0002526 280.4907 231.5603 15.09700952519369 ISS (ZARYA) 1 25544U 98067A 21222.42415126 .00001146 00000-0 29027-4 0 9990 2 25544 51.6431 74.5164 0001375 281.2480 140.8763 15.48889005297005 CXO 1 25867U 99040B 21223.64782241 .00000632 00000-0 00000-0 0 9995 2 25867 53.7582 252.9335 8407955 226.8645 0.5211 0.37813727 10659 ____________________________________________________________________ These 2-Line ...Continue Reading

[list_settings.list_name] Current TLEs

August 9th 2021 PST

HST 1 20580U 90037B 21220.92694431 .00000558 00000-0 22729-4 0 9993 2 20580 28.4704 77.8626 0002525 267.8660 112.1011 15.09700273518956 ISS (ZARYA) 1 25544U 98067A 21221.38133102 .00001155 00000-0 29197-4 0 9993 2 25544 51.6437 79.6691 0001286 279.4591 84.0733 15.48886208296844 CXO 1 25867U 99040B 21221.00234936 .00000622 00000-0 00000-0 0 9995 2 25867 53.8442 253.0842 8405282 226.8086 0.4704 0.37807353 10643 ____________________________________________________________________ These 2-Line ...Continue Reading

[list_settings.list_name] Current TLEs

August 8th 2021 PST

HST 1 20580U 90037B 21219.81674014 .00000565 00000-0 23189-4 0 9993 2 20580 28.4702 85.2089 0002536 254.9001 199.2351 15.09699509518781 ISS (ZARYA) 1 25544U 98067A 21220.41346065 .00000557 00000-0 18297-4 0 9994 2 25544 51.6442 84.4574 0001240 269.3404 93.7940 15.48880777296690 CXO 1 25867U 99040B 21221.00234936 .00000622 00000-0 00000-0 0 9995 2 25867 53.8442 253.0842 8405282 226.8086 0.4704 0.37807353 10643 ____________________________________________________________________ These 2-Line ...Continue Reading

[list_settings.list_name] Current TLEs

August 7th 2021 PST

HST 1 20580U 90037B 21219.03188005 .00000521 00000-0 20511-4 0 9995 2 20580 28.4701 90.4025 0002547 245.9676 254.0605 15.09698636518915 ISS (ZARYA) 1 25544U 98067A 21219.08610569 .00000949 00000-0 25444-4 0 9995 2 25544 51.6433 91.0271 0001374 260.4652 256.5001 15.48879336296486 CXO 1 25867U 99040B 21221.00234936 .00000622 00000-0 00000-0 0 9995 2 25867 53.8442 253.0842 8405282 226.8086 0.4704 0.37807353 10643 ____________________________________________________________________ These 2-Line ...Continue Reading

[list_settings.list_name] Current TLEs

August 6th 2021 PST

HST 1 20580U 90037B 21217.95207838 .00000546 00000-0 22020-4 0 9994 2 20580 28.4700 97.5480 0002576 233.5122 146.2520 15.09697998518747 ISS (ZARYA) 1 25544U 98067A 21218.18035337 .00001654 00000-0 38302-4 0 9990 2 25544 51.6445 95.4989 0001217 254.7652 248.4390 15.48879828296347 CXO 1 25867U 99040B 21218.35714395 .00000512 00000-0 00000-0 0 9999 2 25867 53.9065 253.2039 8401720 226.7671 0.4433 0.37804469 10630 ____________________________________________________________________ These 2-Line ...Continue Reading
  • This mailing list is a public mailing list - anyone may join or leave, at any time.
  • This mailing list is announce-only.

International Space Station (ISS) / Hubble Space Telescope (HST) / Chandra X-Ray Observatory Orbital Data via EMAIL

Privacy Policy:

Private list